This demonstration page uses our WeatherBlox Daily Observations layout. Learn more.

Left ArrowRight Arrow

Hourly Observations for January 13, 2018

Temp ( °F °C ) Dew Point ( °F °C ) Humidity (%) Winds ( mph kmh ) Pressure ( in mb ) Visibility ( mi km ) Precip ( " mm )
12:56 am 00:56 Cloudy 6 -14.4 0 -17.8 76 76 N 12 19 30.72 1040 9 14 0.00 0.03
1:56 am 01:56 Cloudy with Light Snow 5 -15 -1 -18.3 76 76 N 8 13 30.70 1040 9 14 0.00 0.03
2:24 am 02:24 Cloudy with Light Snow 3 -16 0 -18 85 85 N 9 15 30.83 1044 9 14 0.00 0.03
2:56 am 02:56 Cloudy with Light Snow 4 -15.6 -1 -18.3 80 80 NNE 8 13 30.71 1040 9 14 0.00 0.03
3:56 am 03:56 Cloudy with Light Snow 4 -15.6 -1 -18.3 80 80 N 5 7 30.71 1040 9 14 0.00 0.03
4:56 am 04:56 Cloudy with Light Snow 5 -15 -1 -18.3 76 76 N 6 9 30.71 1040 9 14 0.00 0.03
5:56 am 05:56 Cloudy with Light Snow 5 -15 -1 -18.3 76 76 N 5 7 30.71 1040 9 14 0.00 0.03
6:56 am 06:56 Cloudy 5 -15 -1 -18.3 76 76 NNE 6 9 30.71 1040 10 16 0.00 0.03
7:56 am 07:56 Cloudy 5 -15 -1 -18.3 76 76 ENE 3 6 30.73 1041 10 16 0.00 0.00
8:56 am 08:56 Cloudy 6 -14.4 0 -17.8 76 76 ESE 5 7 30.71 1040 10 16 0.00 0.03
9:56 am 09:56 Cloudy with Light Snow 7 -13.9 1 -17.2 76 76 SSE 6 9 30.71 1040 9 14 0.00 0.03
10:56 am 10:56 Cloudy with Light Snow 9 -12.8 2 -16.7 73 73 SSE 7 11 30.71 1040 8 13 0.00 0.03
11:35 am 11:35 Cloudy with Light Snow 10 -12 3 -16 72 72 SSE 8 13 30.77 1042 2 3 0.00 0.03
11:45 am 11:45 Cloudy with Light Snow 10 -12 3 -16 72 72 SSE 10 17 30.74 1041 4 6 0.00 0.00
11:56 am 11:56 Cloudy with Light Snow 10 -12.2 4 -15.6 76 76 SSE 9 15 30.66 1038 5 8 0.00 0.03
12:23 pm 12:23 Cloudy with Light Snow 10 -12 3 -16 72 72 S 10 17 30.74 1041 9 14 0.00 0.00
12:56 pm 12:56 Cloudy with Light Snow 12 -11.1 5 -15 73 73 S 8 13 30.64 1038 10 16 0.00 0.03
1:56 pm 13:56 Cloudy with Light Snow 12 -11.1 5 -15 73 73 S 10 17 30.58 1036 9 14 0.00 0.03
2:56 pm 14:56 Cloudy 13 -10.6 6 -14.4 74 74 S 10 17 30.55 1035 10 16 0.00 0.03
3:56 pm 15:56 Mostly Sunny 13 -10.6 6 -14.4 74 74 S 12 19 30.55 1034 10 16 0.00 0.00
4:56 pm 16:56 Mostly Cloudy 13 -10.6 7 -13.9 77 77 S 10 17 30.55 1035 10 16 0.00 0.00
5:56 pm 17:56 Cloudy with Light Snow 13 -10.6 8 -13.3 81 81 S 10 17 30.55 1035 9 14 0.00 0.03
6:56 pm 18:56 Cloudy with Light Snow 13 -10.6 9 -12.8 84 84 S 12 19 30.54 1034 9 14 0.00 0.03
7:14 pm 19:14 Cloudy with Light Snow 12 -11 9 -13 85 85 S 13 20 30.56 1035 7 11 0.00 0.03
7:56 pm 19:56 Cloudy with Light Snow 13 -10.6 10 -12.2 88 88 S 14 22 30.51 1033 5 8 0.00 0.03
8:56 pm 20:56 Cloudy with Light Snow 13 -10.6 11 -11.7 92 92 S 13 20 30.49 1033 7 11 0.00 0.03
9:03 pm 21:03 Cloudy with Light Snow 12 -11 10 -12 92 92 S 10 17 30.53 1034 8 13 0.00 0.00
9:14 pm 21:14 Cloudy with Light Snow 14 -10 10 -12 85 85 S 10 17 30.53 1034 7 11 0.00 0.03
9:56 pm 21:56 Cloudy with Light Snow 14 -10 11 -11.7 88 88 S 9 15 30.49 1032 6 10 0.00 0.03
10:56 pm 22:56 Cloudy with Light Snow 14 -10 11 -11.7 88 88 S 10 17 30.48 1032 5 8 0.00 0.03
11:56 pm 23:56 Cloudy with Light Snow 14 -10 12 -11.1 92 92 S 8 13 30.49 1032 5 8 0.00 0.03

Powered by AerisWeather